Year,Month,Day,Hour,Minute,Value (Times are PST for temperature in C)
2009,09,28,00,00,9.20
2009,09,28,00,01,9.20
2009,09,28,00,02,9.20
2009,09,28,00,03,9.20
2009,09,28,00,04,9.20
2009,09,28,00,05,9.10
2009,09,28,00,06,9.10
2009,09,28,00,07,9.10
2009,09,28,00,08,9.10
2009,09,28,00,09,9.10
2009,09,28,00,10,9.00
2009,09,28,00,11,9.00
2009,09,28,00,12,9.00
2009,09,28,00,13,9.00
2009,09,28,00,14,8.90
2009,09,28,00,15,8.90
2009,09,28,00,16,8.90
2009,09,28,00,17,8.90
2009,09,28,00,18,8.80
2009,09,28,00,19,8.80
2009,09,28,00,20,8.80
2009,09,28,00,21,8.80
2009,09,28,00,22,8.70
2009,09,28,00,23,8.70
2009,09,28,00,24,8.70
2009,09,28,00,25,8.70
2009,09,28,00,26,8.70
2009,09,28,00,27,8.70
2009,09,28,00,28,8.70
2009,09,28,00,29,8.70
2009,09,28,00,30,8.70
2009,09,28,00,31,8.70
2009,09,28,00,32,8.70
2009,09,28,00,33,8.70
2009,09,28,00,34,8.70
2009,09,28,00,35,8.70
2009,09,28,00,36,8.60
2009,09,28,00,37,8.60
2009,09,28,00,38,8.60
2009,09,28,00,39,8.60
2009,09,28,00,40,8.60
2009,09,28,00,41,8.60
2009,09,28,00,42,8.60
2009,09,28,00,43,8.60
2009,09,28,00,44,8.60
2009,09,28,00,45,8.50
2009,09,28,00,46,8.50
2009,09,28,00,47,8.50
2009,09,28,00,48,8.50
2009,09,28,00,49,8.50
2009,09,28,00,50,8.50
2009,09,28,00,51,8.50
2009,09,28,00,52,8.50
2009,09,28,00,53,8.50
2009,09,28,00,54,8.50
2009,09,28,00,55,8.50
2009,09,28,00,56,8.50
2009,09,28,00,57,8.40
2009,09,28,00,58,8.40
2009,09,28,00,59,8.40
2009,09,28,01,00,8.30
2009,09,28,01,01,8.30
2009,09,28,01,02,8.30
2009,09,28,01,03,8.30
2009,09,28,01,04,8.30
2009,09,28,01,05,8.30
2009,09,28,01,06,8.30
2009,09,28,01,07,8.30
2009,09,28,01,08,8.30
2009,09,28,01,09,8.30
2009,09,28,01,10,8.20
2009,09,28,01,11,8.20
2009,09,28,01,12,8.20
2009,09,28,01,13,8.20
2009,09,28,01,14,8.20
2009,09,28,01,15,8.20
2009,09,28,01,16,8.20
2009,09,28,01,17,8.20
2009,09,28,01,18,8.20
2009,09,28,01,19,8.20
2009,09,28,01,20,8.20
2009,09,28,01,21,8.10
2009,09,28,01,22,8.10
2009,09,28,01,23,8.10
2009,09,28,01,24,8.10
2009,09,28,01,25,8.00
2009,09,28,01,26,8.00
2009,09,28,01,27,8.00
2009,09,28,01,28,8.00
2009,09,28,01,29,8.00
2009,09,28,01,30,8.00
2009,09,28,01,31,8.00
2009,09,28,01,32,8.00
2009,09,28,01,33,8.00
2009,09,28,01,34,8.00
2009,09,28,01,35,8.00
2009,09,28,01,36,7.90
2009,09,28,01,37,7.90
2009,09,28,01,38,7.90
2009,09,28,01,39,7.90
2009,09,28,01,40,7.90
2009,09,28,01,41,7.90
2009,09,28,01,42,7.90
2009,09,28,01,43,7.90
2009,09,28,01,44,7.90
2009,09,28,01,45,7.90
2009,09,28,01,46,7.90
2009,09,28,01,47,7.90
2009,09,28,01,48,7.90
2009,09,28,01,49,7.90
2009,09,28,01,50,8.00
2009,09,28,01,51,8.00
2009,09,28,01,52,8.00
2009,09,28,01,53,8.00
2009,09,28,01,54,8.00
2009,09,28,01,55,8.00
2009,09,28,01,56,8.00
2009,09,28,01,57,8.00
2009,09,28,01,58,8.00
2009,09,28,01,59,8.00
2009,09,28,02,00,8.00
2009,09,28,02,01,8.00
2009,09,28,02,02,8.00
2009,09,28,02,03,8.00
2009,09,28,02,04,8.00
2009,09,28,02,05,8.00
2009,09,28,02,06,7.90
2009,09,28,02,07,7.90
2009,09,28,02,08,7.90
2009,09,28,02,09,7.90
2009,09,28,02,10,7.90
2009,09,28,02,11,7.90
2009,09,28,02,12,7.80
2009,09,28,02,13,7.80
2009,09,28,02,14,7.80
2009,09,28,02,15,7.80
2009,09,28,02,16,7.80
2009,09,28,02,17,7.80
2009,09,28,02,18,7.70
2009,09,28,02,19,7.70
2009,09,28,02,20,7.70
2009,09,28,02,21,7.70
2009,09,28,02,22,7.70
2009,09,28,02,23,7.60
2009,09,28,02,24,7.60
2009,09,28,02,25,7.60
2009,09,28,02,26,7.60
2009,09,28,02,27,7.60
2009,09,28,02,28,7.60
2009,09,28,02,29,7.60
2009,09,28,02,30,7.60
2009,09,28,02,31,7.60
2009,09,28,02,32,7.50
2009,09,28,02,33,7.50
2009,09,28,02,34,7.50
2009,09,28,02,35,7.50
2009,09,28,02,36,7.60
2009,09,28,02,37,7.60
2009,09,28,02,38,7.60
2009,09,28,02,39,7.60
2009,09,28,02,40,7.70
2009,09,28,02,41,7.70
2009,09,28,02,42,7.80
2009,09,28,02,43,7.80
2009,09,28,02,44,7.80
2009,09,28,02,45,7.80
2009,09,28,02,46,7.80
2009,09,28,02,47,7.80
2009,09,28,02,48,7.80
2009,09,28,02,49,7.80
2009,09,28,02,50,7.80
2009,09,28,02,51,7.80
2009,09,28,02,52,7.80
2009,09,28,02,53,7.80
2009,09,28,02,54,7.80
2009,09,28,02,55,7.80
2009,09,28,02,56,7.80
2009,09,28,02,57,7.80
2009,09,28,02,58,7.80
2009,09,28,02,59,7.80
2009,09,28,03,00,7.80
2009,09,28,03,01,7.80
2009,09,28,03,02,7.80
2009,09,28,03,03,7.80
2009,09,28,03,04,7.80
2009,09,28,03,05,7.70
2009,09,28,03,06,7.70
2009,09,28,03,07,7.70
2009,09,28,03,08,7.70
2009,09,28,03,09,7.70
2009,09,28,03,10,7.70
2009,09,28,03,11,7.60
2009,09,28,03,12,7.60
2009,09,28,03,13,7.60
2009,09,28,03,14,7.60
2009,09,28,03,15,7.60
2009,09,28,03,16,7.50
2009,09,28,03,17,7.50
2009,09,28,03,18,7.50
2009,09,28,03,19,7.50
2009,09,28,03,20,7.50
2009,09,28,03,21,7.50
2009,09,28,03,22,7.50
2009,09,28,03,23,7.40
2009,09,28,03,24,7.40
2009,09,28,03,25,7.40
2009,09,28,03,26,7.40
2009,09,28,03,27,7.40
2009,09,28,03,28,7.40
2009,09,28,03,29,7.40
2009,09,28,03,30,7.40
2009,09,28,03,31,7.40
2009,09,28,03,32,7.40
2009,09,28,03,33,7.30
2009,09,28,03,34,7.30
2009,09,28,03,35,7.30
2009,09,28,03,36,7.40
2009,09,28,03,37,7.40
2009,09,28,03,38,7.40
2009,09,28,03,39,7.40
2009,09,28,03,40,7.40
2009,09,28,03,41,7.40
2009,09,28,03,42,7.40
2009,09,28,03,43,7.40
2009,09,28,03,44,7.40
2009,09,28,03,45,7.40
2009,09,28,03,46,7.40
2009,09,28,03,47,7.50
2009,09,28,03,48,7.50
2009,09,28,03,49,7.50
2009,09,28,03,50,7.60
2009,09,28,03,51,7.60
2009,09,28,03,52,7.60
2009,09,28,03,53,7.60
2009,09,28,03,54,7.60
2009,09,28,03,55,7.60
2009,09,28,03,56,7.60
2009,09,28,03,57,7.50
2009,09,28,03,58,7.50
2009,09,28,03,59,7.50
2009,09,28,04,00,7.50
2009,09,28,04,01,7.40
2009,09,28,04,02,7.40
2009,09,28,04,03,7.40
2009,09,28,04,04,7.40
2009,09,28,04,05,7.40
2009,09,28,04,06,7.30
2009,09,28,04,07,7.30
2009,09,28,04,08,7.30
2009,09,28,04,09,7.30
2009,09,28,04,10,7.30
2009,09,28,04,11,7.30
2009,09,28,04,12,7.30
2009,09,28,04,13,7.30
2009,09,28,04,14,7.30
2009,09,28,04,15,7.20
2009,09,28,04,16,7.10
2009,09,28,04,17,7.00
2009,09,28,04,18,7.00
2009,09,28,04,19,6.90
2009,09,28,04,20,6.80
2009,09,28,04,21,6.80
2009,09,28,04,22,6.80
2009,09,28,04,23,6.70
2009,09,28,04,24,6.70
2009,09,28,04,25,6.70
2009,09,28,04,26,6.60
2009,09,28,04,27,6.60
2009,09,28,04,28,6.60
2009,09,28,04,29,6.60
2009,09,28,04,30,6.60
2009,09,28,04,31,6.60
2009,09,28,04,32,6.70
2009,09,28,04,33,6.70
2009,09,28,04,34,6.70
2009,09,28,04,35,6.80
2009,09,28,04,36,6.80
2009,09,28,04,37,6.80
2009,09,28,04,38,6.80
2009,09,28,04,39,6.80
2009,09,28,04,40,6.80
2009,09,28,04,41,6.90
2009,09,28,04,42,6.90
2009,09,28,04,43,6.90
2009,09,28,04,44,6.90
2009,09,28,04,45,6.90
2009,09,28,04,46,6.90
2009,09,28,04,47,6.90
2009,09,28,04,48,6.90
2009,09,28,04,49,6.90
2009,09,28,04,50,6.90
2009,09,28,04,51,6.90
2009,09,28,04,52,6.80
2009,09,28,04,53,6.80
2009,09,28,04,54,6.80
2009,09,28,04,55,6.80
2009,09,28,04,56,6.80
2009,09,28,04,57,6.80
2009,09,28,04,58,6.80
2009,09,28,04,59,6.80
2009,09,28,05,00,6.80
2009,09,28,05,01,6.80
2009,09,28,05,02,6.80
2009,09,28,05,03,6.80
2009,09,28,05,04,6.80
2009,09,28,05,05,6.80
2009,09,28,05,06,6.80
2009,09,28,05,07,6.80
2009,09,28,05,08,6.80
2009,09,28,05,09,6.80
2009,09,28,05,10,6.80
2009,09,28,05,11,6.80
2009,09,28,05,12,6.90
2009,09,28,05,13,6.90
2009,09,28,05,14,6.90
2009,09,28,05,15,6.90
2009,09,28,05,16,6.90
2009,09,28,05,17,6.90
2009,09,28,05,18,6.90
2009,09,28,05,19,6.90
2009,09,28,05,20,7.00
2009,09,28,05,21,7.00
2009,09,28,05,22,7.00
2009,09,28,05,23,7.00
2009,09,28,05,24,7.00
2009,09,28,05,25,6.90
2009,09,28,05,26,6.90
2009,09,28,05,27,6.90
2009,09,28,05,28,6.90
2009,09,28,05,29,6.90
2009,09,28,05,30,6.90
2009,09,28,05,31,6.90
2009,09,28,05,32,6.90
2009,09,28,05,33,6.90
2009,09,28,05,34,6.90
2009,09,28,05,35,6.90
2009,09,28,05,36,6.80
2009,09,28,05,37,6.80
2009,09,28,05,38,6.80
2009,09,28,05,39,6.80
2009,09,28,05,40,6.80
2009,09,28,05,41,6.80
2009,09,28,05,42,6.80
2009,09,28,05,43,6.80
2009,09,28,05,44,6.80
2009,09,28,05,45,6.80
2009,09,28,05,46,6.80
2009,09,28,05,47,6.80
2009,09,28,05,48,6.80
2009,09,28,05,49,6.90
2009,09,28,05,50,6.90
2009,09,28,05,51,7.00
2009,09,28,05,52,7.00
2009,09,28,05,53,7.00
2009,09,28,05,54,7.00
2009,09,28,05,55,7.00
2009,09,28,05,56,7.00
2009,09,28,05,57,7.00
2009,09,28,05,58,7.00
2009,09,28,05,59,7.00
2009,09,28,06,00,7.00
2009,09,28,06,01,7.10
2009,09,28,06,02,7.20
2009,09,28,06,03,7.20
2009,09,28,06,04,7.20
2009,09,28,06,05,7.30
2009,09,28,06,06,7.20
2009,09,28,06,07,7.20
2009,09,28,06,08,7.30
2009,09,28,06,09,7.30
2009,09,28,06,10,7.30
2009,09,28,06,11,7.30
2009,09,28,06,12,7.30
2009,09,28,06,13,7.30
2009,09,28,06,14,7.30
2009,09,28,06,15,7.30
2009,09,28,06,16,7.30
2009,09,28,06,17,7.30
2009,09,28,06,18,7.30
2009,09,28,06,19,7.30
2009,09,28,06,20,7.30
2009,09,28,06,21,7.20
2009,09,28,06,22,7.20
2009,09,28,06,23,7.20
2009,09,28,06,24,7.10
2009,09,28,06,25,7.10
2009,09,28,06,26,7.10
2009,09,28,06,27,7.10
2009,09,28,06,28,7.10
2009,09,28,06,29,7.20
2009,09,28,06,30,7.20
2009,09,28,06,31,7.20
2009,09,28,06,32,7.20
2009,09,28,06,33,7.20
2009,09,28,06,34,7.10
2009,09,28,06,35,7.10
2009,09,28,06,36,7.10
2009,09,28,06,37,7.10
2009,09,28,06,38,7.10
2009,09,28,06,39,7.10
2009,09,28,06,40,7.10
2009,09,28,06,41,7.10
2009,09,28,06,42,7.10
2009,09,28,06,43,7.20
2009,09,28,06,44,7.30
2009,09,28,06,45,7.30
2009,09,28,06,46,7.30
2009,09,28,06,47,7.30
2009,09,28,06,48,7.30
2009,09,28,06,49,7.30
2009,09,28,06,50,7.40
2009,09,28,06,51,7.60
2009,09,28,06,52,7.80
2009,09,28,06,53,8.00
2009,09,28,06,54,8.20
2009,09,28,06,55,8.30
2009,09,28,06,56,8.40
2009,09,28,06,57,8.50
2009,09,28,06,58,8.50
2009,09,28,06,59,8.60
2009,09,28,07,00,8.60
2009,09,28,07,01,8.60
2009,09,28,07,02,8.60
2009,09,28,07,03,8.60
2009,09,28,07,04,8.60
2009,09,28,07,05,8.70
2009,09,28,07,06,8.60
2009,09,28,07,07,8.50
2009,09,28,07,08,8.40
2009,09,28,07,09,8.30
2009,09,28,07,10,8.30
2009,09,28,07,11,8.30
2009,09,28,07,12,8.40
2009,09,28,07,13,8.40
2009,09,28,07,14,8.40
2009,09,28,07,15,8.40
2009,09,28,07,16,8.30
2009,09,28,07,17,8.30
2009,09,28,07,18,8.20
2009,09,28,07,19,8.10
2009,09,28,07,20,8.00
2009,09,28,07,21,7.90
2009,09,28,07,22,7.90
2009,09,28,07,23,7.80
2009,09,28,07,24,7.80
2009,09,28,07,25,7.80
2009,09,28,07,26,7.80
2009,09,28,07,27,7.80
2009,09,28,07,28,7.80
2009,09,28,07,29,7.80
2009,09,28,07,30,7.80
2009,09,28,07,31,7.80
2009,09,28,07,32,7.80
2009,09,28,07,33,7.80
2009,09,28,07,34,7.80
2009,09,28,07,35,7.80
2009,09,28,07,36,7.80
2009,09,28,07,37,7.80
2009,09,28,07,38,7.80
2009,09,28,07,39,7.80
2009,09,28,07,40,7.80
2009,09,28,07,41,7.80
2009,09,28,07,42,7.70
2009,09,28,07,43,7.70
2009,09,28,07,44,7.70
2009,09,28,07,45,7.60
2009,09,28,07,46,7.60
2009,09,28,07,47,7.70
2009,09,28,07,48,7.70
2009,09,28,07,49,7.70
2009,09,28,07,50,7.80
2009,09,28,07,51,7.80
2009,09,28,07,52,7.90
2009,09,28,07,53,7.90
2009,09,28,07,54,8.00
2009,09,28,07,55,8.10
2009,09,28,07,56,8.20
2009,09,28,07,57,8.20
2009,09,28,07,58,8.40
2009,09,28,07,59,8.50
2009,09,28,08,00,8.60
2009,09,28,08,01,8.70
2009,09,28,08,02,8.70
2009,09,28,08,03,8.80
2009,09,28,08,04,8.80
2009,09,28,08,05,8.80
2009,09,28,08,06,8.80
2009,09,28,08,07,8.80
2009,09,28,08,08,8.80
2009,09,28,08,09,8.90
2009,09,28,08,10,8.80
2009,09,28,08,11,8.80
2009,09,28,08,12,8.90
2009,09,28,08,13,8.90
2009,09,28,08,14,8.90
2009,09,28,08,15,8.90
2009,09,28,08,16,8.90
2009,09,28,08,17,9.00
2009,09,28,08,18,9.00
2009,09,28,08,19,9.00
2009,09,28,08,20,9.10
2009,09,28,08,21,9.10
2009,09,28,08,22,9.20
2009,09,28,08,23,9.20
2009,09,28,08,24,9.30
2009,09,28,08,25,9.40
2009,09,28,08,26,9.50
2009,09,28,08,27,9.60
2009,09,28,08,28,9.60
2009,09,28,08,29,9.70
2009,09,28,08,30,9.70
2009,09,28,08,31,9.80
2009,09,28,08,32,9.90
2009,09,28,08,33,10.10
2009,09,28,08,34,10.20
2009,09,28,08,35,10.20
2009,09,28,08,36,10.30
2009,09,28,08,37,10.30
2009,09,28,08,38,10.40
2009,09,28,08,39,10.40
2009,09,28,08,40,10.40
2009,09,28,08,41,10.40
2009,09,28,08,42,10.50
2009,09,28,08,43,10.60
2009,09,28,08,44,10.60
2009,09,28,08,45,10.60
2009,09,28,08,46,10.60
2009,09,28,08,47,10.60
2009,09,28,08,48,10.70
2009,09,28,08,49,10.70
2009,09,28,08,50,10.80
2009,09,28,08,51,10.80
2009,09,28,08,52,10.90
2009,09,28,08,53,11.00
2009,09,28,08,54,11.10
2009,09,28,08,55,11.20
2009,09,28,08,56,11.30
2009,09,28,08,57,11.40
2009,09,28,08,58,11.60
2009,09,28,08,59,11.70
2009,09,28,09,00,11.90
2009,09,28,09,01,12.00
2009,09,28,09,02,12.10
2009,09,28,09,03,12.30
2009,09,28,09,04,12.30
2009,09,28,09,05,12.40
2009,09,28,09,06,12.40
2009,09,28,09,07,12.50
2009,09,28,09,08,12.50
2009,09,28,09,09,12.50
2009,09,28,09,10,12.40
2009,09,28,09,11,12.40
2009,09,28,09,12,12.40
2009,09,28,09,13,12.50
2009,09,28,09,14,12.50
2009,09,28,09,15,12.50
2009,09,28,09,16,12.60
2009,09,28,09,17,12.60
2009,09,28,09,18,12.70
2009,09,28,09,19,12.70
2009,09,28,09,20,12.70
2009,09,28,09,21,12.70
2009,09,28,09,22,12.70
2009,09,28,09,23,12.60
2009,09,28,09,24,12.60
2009,09,28,09,25,12.60
2009,09,28,09,26,12.60
2009,09,28,09,27,12.50
2009,09,28,09,28,12.50
2009,09,28,09,29,12.40
2009,09,28,09,30,12.30
2009,09,28,09,31,12.30
2009,09,28,09,32,12.30
2009,09,28,09,33,12.30
2009,09,28,09,34,12.30
2009,09,28,09,35,12.30
2009,09,28,09,36,12.30
2009,09,28,09,37,12.30
2009,09,28,09,38,12.30
2009,09,28,09,39,12.30
2009,09,28,09,40,12.30
2009,09,28,09,41,12.30
2009,09,28,09,42,12.40
2009,09,28,09,43,12.40
2009,09,28,09,44,12.50
2009,09,28,09,45,12.40
2009,09,28,09,46,12.50
2009,09,28,09,47,12.50
2009,09,28,09,48,12.50
2009,09,28,09,49,12.50
2009,09,28,09,50,12.50
2009,09,28,09,51,12.50
2009,09,28,09,52,12.60
2009,09,28,09,53,12.60
2009,09,28,09,54,12.60
2009,09,28,09,55,12.60
2009,09,28,09,56,12.70
2009,09,28,09,57,12.70
2009,09,28,09,58,12.60
2009,09,28,09,59,12.60
2009,09,28,10,00,12.60
2009,09,28,10,01,12.70
2009,09,28,10,02,12.70
2009,09,28,10,03,12.70
2009,09,28,10,04,12.60
2009,09,28,10,05,12.50
2009,09,28,10,06,12.50
2009,09,28,10,07,12.60
2009,09,28,10,08,12.70
2009,09,28,10,09,12.70
2009,09,28,10,10,12.80
2009,09,28,10,11,12.70
2009,09,28,10,12,12.60
2009,09,28,10,13,12.60
2009,09,28,10,14,12.60
2009,09,28,10,15,12.70
2009,09,28,10,16,12.80
2009,09,28,10,17,12.80
2009,09,28,10,18,12.90
2009,09,28,10,19,13.00
2009,09,28,10,20,13.10
2009,09,28,10,21,13.20
2009,09,28,10,22,13.30
2009,09,28,10,23,13.40
2009,09,28,10,24,13.50
2009,09,28,10,25,13.50
2009,09,28,10,26,13.40
2009,09,28,10,27,13.30
2009,09,28,10,28,13.20
2009,09,28,10,29,13.10
2009,09,28,10,30,13.10
2009,09,28,10,31,13.20
2009,09,28,10,32,13.20
2009,09,28,10,33,13.10
2009,09,28,10,34,13.10
2009,09,28,10,35,13.00
2009,09,28,10,36,13.00
2009,09,28,10,37,13.00
2009,09,28,10,38,13.00
2009,09,28,10,39,12.90
2009,09,28,10,40,12.90
2009,09,28,10,41,12.90
2009,09,28,10,42,12.90
2009,09,28,10,43,13.00
2009,09,28,10,44,13.00
2009,09,28,10,45,13.10
2009,09,28,10,46,13.20
2009,09,28,10,47,13.30
2009,09,28,10,48,13.30
2009,09,28,10,49,13.30
2009,09,28,10,50,13.30
2009,09,28,10,51,13.40
2009,09,28,10,52,13.40
2009,09,28,10,53,13.50
2009,09,28,10,54,13.60
2009,09,28,10,55,13.70
2009,09,28,10,56,13.80
2009,09,28,10,57,14.00
2009,09,28,10,58,14.20
2009,09,28,10,59,14.50
2009,09,28,11,00,14.70
2009,09,28,11,01,14.90
2009,09,28,11,02,15.10
2009,09,28,11,03,15.20
2009,09,28,11,04,15.30
2009,09,28,11,05,15.50
2009,09,28,11,06,15.60
2009,09,28,11,07,15.70
2009,09,28,11,08,15.80
2009,09,28,11,09,15.80
2009,09,28,11,10,15.80
2009,09,28,11,11,15.80
2009,09,28,11,12,15.80
2009,09,28,11,13,15.90
2009,09,28,11,14,15.90
2009,09,28,11,15,15.90
2009,09,28,11,16,15.90
2009,09,28,11,17,15.80
2009,09,28,11,18,15.80
2009,09,28,11,19,15.80
2009,09,28,11,20,15.80
2009,09,28,11,21,15.80
2009,09,28,11,22,15.80
2009,09,28,11,23,15.80
2009,09,28,11,24,15.80
2009,09,28,11,25,15.80
2009,09,28,11,26,15.80
2009,09,28,11,27,15.80
2009,09,28,11,28,15.80
2009,09,28,11,29,15.70
2009,09,28,11,30,15.70
2009,09,28,11,31,15.60
2009,09,28,11,32,15.60
2009,09,28,11,33,15.50
2009,09,28,11,34,15.50
2009,09,28,11,35,15.40
2009,09,28,11,36,15.40
2009,09,28,11,37,15.40
2009,09,28,11,38,15.40
2009,09,28,11,39,15.40
2009,09,28,11,40,15.40
2009,09,28,11,41,15.40
2009,09,28,11,42,15.40
2009,09,28,11,43,15.30
2009,09,28,11,44,15.30
2009,09,28,11,45,15.30
2009,09,28,11,46,15.30
2009,09,28,11,47,15.30
2009,09,28,11,48,15.30
2009,09,28,11,49,15.20
2009,09,28,11,50,15.20
2009,09,28,11,51,15.20
2009,09,28,11,52,15.10
2009,09,28,11,53,15.10
2009,09,28,11,54,15.10
2009,09,28,11,55,15.10
2009,09,28,11,56,15.10
2009,09,28,11,57,15.10
2009,09,28,11,58,15.10
2009,09,28,11,59,15.10
2009,09,28,12,00,15.10
2009,09,28,12,01,15.20
2009,09,28,12,02,15.20
2009,09,28,12,03,15.20
2009,09,28,12,04,15.20
2009,09,28,12,05,15.30
2009,09,28,12,06,15.30
2009,09,28,12,07,15.30
2009,09,28,12,08,15.30
2009,09,28,12,09,15.30
2009,09,28,12,10,15.30
2009,09,28,12,11,15.30
2009,09,28,12,12,15.30
2009,09,28,12,13,15.30
2009,09,28,12,14,15.30
2009,09,28,12,15,15.30
2009,09,28,12,16,15.30
2009,09,28,12,17,15.30
2009,09,28,12,18,15.30
2009,09,28,12,19,15.30
2009,09,28,12,20,15.30
2009,09,28,12,21,15.30
2009,09,28,12,22,15.30
2009,09,28,12,23,15.30
2009,09,28,12,24,15.40
2009,09,28,12,25,15.40
2009,09,28,12,26,15.50
2009,09,28,12,27,15.50
2009,09,28,12,28,15.60
2009,09,28,12,29,15.60
2009,09,28,12,30,15.60
2009,09,28,12,31,15.60
2009,09,28,12,32,15.60
2009,09,28,12,33,15.60
2009,09,28,12,34,15.60
2009,09,28,12,35,15.70
2009,09,28,12,36,15.70
2009,09,28,12,37,15.70
2009,09,28,12,38,15.80
2009,09,28,12,39,15.80
2009,09,28,12,40,15.80
2009,09,28,12,41,15.80
2009,09,28,12,42,15.80
2009,09,28,12,43,15.80
2009,09,28,12,44,15.80
2009,09,28,12,45,15.80
2009,09,28,12,46,15.80
2009,09,28,12,47,15.80
2009,09,28,12,48,15.80
2009,09,28,12,49,15.80
2009,09,28,12,50,15.80
2009,09,28,12,51,15.80
2009,09,28,12,52,15.80
2009,09,28,12,53,15.80
2009,09,28,12,54,15.80
2009,09,28,12,55,15.90
2009,09,28,12,56,15.90
2009,09,28,12,57,16.00
2009,09,28,12,58,16.10
2009,09,28,12,59,16.10
2009,09,28,13,00,16.20
2009,09,28,13,01,16.20
2009,09,28,13,02,16.20
2009,09,28,13,03,16.30
2009,09,28,13,04,16.30
2009,09,28,13,05,16.40
2009,09,28,13,06,16.40
2009,09,28,13,07,16.40
2009,09,28,13,08,16.40
2009,09,28,13,09,16.40
2009,09,28,13,10,16.40
2009,09,28,13,11,16.50
2009,09,28,13,12,16.60
2009,09,28,13,13,16.60
2009,09,28,13,14,16.60
2009,09,28,13,15,16.60
2009,09,28,13,16,16.60
2009,09,28,13,17,16.50
2009,09,28,13,18,16.40
2009,09,28,13,19,16.40
2009,09,28,13,20,16.40
2009,09,28,13,21,16.40
2009,09,28,13,22,16.40
2009,09,28,13,23,16.40
2009,09,28,13,24,16.40
2009,09,28,13,25,16.40
2009,09,28,13,26,16.40
2009,09,28,13,27,16.40
2009,09,28,13,28,16.40
2009,09,28,13,29,16.40
2009,09,28,13,30,16.40
2009,09,28,13,31,16.40
2009,09,28,13,32,16.30
2009,09,28,13,33,16.30
2009,09,28,13,34,16.30
2009,09,28,13,35,16.40
2009,09,28,13,36,16.40
2009,09,28,13,37,16.40
2009,09,28,13,38,16.40
2009,09,28,13,39,16.40
2009,09,28,13,40,16.40
2009,09,28,13,41,16.30
2009,09,28,13,42,16.30
2009,09,28,13,43,16.20
2009,09,28,13,44,16.20
2009,09,28,13,45,16.10
2009,09,28,13,46,16.10
2009,09,28,13,47,16.10
2009,09,28,13,48,16.20
2009,09,28,13,49,16.10
2009,09,28,13,50,16.10
2009,09,28,13,51,16.10
2009,09,28,13,52,16.10
2009,09,28,13,53,16.10
2009,09,28,13,54,16.20
2009,09,28,13,55,16.20
2009,09,28,13,56,16.20
2009,09,28,13,57,16.20
2009,09,28,13,58,16.10
2009,09,28,13,59,16.10
2009,09,28,14,00,15.90
2009,09,28,14,01,15.80
2009,09,28,14,02,15.80
2009,09,28,14,03,15.70
2009,09,28,14,04,15.60
2009,09,28,14,05,15.60
2009,09,28,14,06,15.60
2009,09,28,14,07,15.70
2009,09,28,14,08,15.70
2009,09,28,14,09,15.60
2009,09,28,14,10,15.60
2009,09,28,14,11,15.50
2009,09,28,14,12,15.50
2009,09,28,14,13,15.50
2009,09,28,14,14,15.40
2009,09,28,14,15,15.40
2009,09,28,14,16,15.30
2009,09,28,14,17,15.30
2009,09,28,14,18,15.20
2009,09,28,14,19,15.20
2009,09,28,14,20,15.20
2009,09,28,14,21,15.10
2009,09,28,14,22,15.10
2009,09,28,14,23,15.10
2009,09,28,14,24,15.00
2009,09,28,14,25,15.00
2009,09,28,14,26,15.00
2009,09,28,14,27,15.00
2009,09,28,14,28,15.00
2009,09,28,14,29,15.00
2009,09,28,14,30,15.00
2009,09,28,14,31,15.00
2009,09,28,14,32,14.90
2009,09,28,14,33,14.70
2009,09,28,14,34,14.70
2009,09,28,14,35,14.70
2009,09,28,14,36,14.60
2009,09,28,14,37,14.40
2009,09,28,14,38,14.40
2009,09,28,14,39,14.40
2009,09,28,14,40,14.30
2009,09,28,14,41,14.40
2009,09,28,14,42,14.40
2009,09,28,14,43,14.40
2009,09,28,14,44,14.30
2009,09,28,14,45,14.40
2009,09,28,14,46,14.40
2009,09,28,14,47,14.40
2009,09,28,14,48,14.50
2009,09,28,14,49,14.60
2009,09,28,14,50,14.70
2009,09,28,14,51,14.80
2009,09,28,14,52,14.90
2009,09,28,14,53,14.90
2009,09,28,14,54,15.00
2009,09,28,14,55,15.10
2009,09,28,14,56,15.10
2009,09,28,14,57,15.10
2009,09,28,14,58,15.10
2009,09,28,14,59,15.00
2009,09,28,15,00,15.00
2009,09,28,15,01,14.90
2009,09,28,15,02,14.90
2009,09,28,15,03,14.90
2009,09,28,15,04,14.90
2009,09,28,15,05,14.90
2009,09,28,15,06,14.80
2009,09,28,15,07,14.80
2009,09,28,15,08,14.80
2009,09,28,15,09,14.80
2009,09,28,15,10,14.70
2009,09,28,15,11,14.60
2009,09,28,15,12,14.40
2009,09,28,15,13,14.30
2009,09,28,15,14,14.20
2009,09,28,15,15,14.10
2009,09,28,15,16,14.10
2009,09,28,15,17,14.00
2009,09,28,15,18,13.90
2009,09,28,15,19,13.90
2009,09,28,15,20,13.80
2009,09,28,15,21,13.80
2009,09,28,15,22,13.70
2009,09,28,15,23,13.70
2009,09,28,15,24,13.70
2009,09,28,15,25,13.70
2009,09,28,15,26,13.70
2009,09,28,15,27,13.70
2009,09,28,15,28,13.80
2009,09,28,15,29,13.80
2009,09,28,15,30,13.80
2009,09,28,15,31,13.80
2009,09,28,15,32,13.80
2009,09,28,15,33,13.80
2009,09,28,15,34,13.80
2009,09,28,15,35,13.90
2009,09,28,15,36,13.90
2009,09,28,15,37,13.90
2009,09,28,15,38,14.00
2009,09,28,15,39,13.90
2009,09,28,15,40,13.90
2009,09,28,15,41,13.90
2009,09,28,15,42,13.80
2009,09,28,15,43,13.70
2009,09,28,15,44,13.70
2009,09,28,15,45,13.60
2009,09,28,15,46,13.60
2009,09,28,15,47,13.50
2009,09,28,15,48,13.40
2009,09,28,15,49,13.30
2009,09,28,15,50,13.30
2009,09,28,15,51,13.30
2009,09,28,15,52,13.20
2009,09,28,15,53,13.10
2009,09,28,15,54,13.10
2009,09,28,15,55,13.00
2009,09,28,15,56,12.90
2009,09,28,15,57,12.90
2009,09,28,15,58,12.80
2009,09,28,15,59,12.80
2009,09,28,16,00,12.80
2009,09,28,16,01,12.70
2009,09,28,16,02,12.60
2009,09,28,16,03,12.60
2009,09,28,16,04,12.60
2009,09,28,16,05,12.50
2009,09,28,16,06,12.50
2009,09,28,16,07,12.50
2009,09,28,16,08,12.40
2009,09,28,16,09,12.40
2009,09,28,16,10,12.40
2009,09,28,16,11,12.40
2009,09,28,16,12,12.40
2009,09,28,16,13,12.30
2009,09,28,16,14,12.30
2009,09,28,16,15,12.30
2009,09,28,16,16,12.30
2009,09,28,16,17,12.20
2009,09,28,16,18,12.20
2009,09,28,16,19,12.10
2009,09,28,16,20,12.10
2009,09,28,16,21,12.10
2009,09,28,16,22,12.00
2009,09,28,16,23,12.00
2009,09,28,16,24,11.90
2009,09,28,16,25,11.90
2009,09,28,16,26,11.90
2009,09,28,16,27,11.90
2009,09,28,16,28,11.80
2009,09,28,16,29,11.80
2009,09,28,16,30,11.80
2009,09,28,16,31,11.70
2009,09,28,16,32,11.70
2009,09,28,16,33,11.70
2009,09,28,16,34,11.70
2009,09,28,16,35,11.60
2009,09,28,16,36,11.60
2009,09,28,16,37,11.60
2009,09,28,16,38,11.60
2009,09,28,16,39,11.60
2009,09,28,16,40,11.60
2009,09,28,16,41,11.60
2009,09,28,16,42,11.50
2009,09,28,16,43,11.40
2009,09,28,16,44,11.40
2009,09,28,16,45,11.40
2009,09,28,16,46,11.40
2009,09,28,16,47,11.40
2009,09,28,16,48,11.30
2009,09,28,16,49,11.30
2009,09,28,16,50,11.30
2009,09,28,16,51,11.20
2009,09,28,16,52,11.20
2009,09,28,16,53,11.20
2009,09,28,16,54,11.20
2009,09,28,16,55,11.20
2009,09,28,16,56,11.10
2009,09,28,16,57,11.10
2009,09,28,16,58,11.10
2009,09,28,16,59,11.10
2009,09,28,17,00,11.00
2009,09,28,17,01,10.90
2009,09,28,17,02,10.90
2009,09,28,17,03,10.90
2009,09,28,17,04,10.90
2009,09,28,17,05,10.90
2009,09,28,17,06,10.90
2009,09,28,17,07,10.80
2009,09,28,17,08,10.80
2009,09,28,17,09,10.80
2009,09,28,17,10,10.70
2009,09,28,17,11,10.70
2009,09,28,17,12,10.70
2009,09,28,17,13,10.70
2009,09,28,17,14,10.70
2009,09,28,17,15,10.60
2009,09,28,17,16,10.60
2009,09,28,17,17,10.60
2009,09,28,17,18,10.60
2009,09,28,17,19,10.60
2009,09,28,17,20,10.60
2009,09,28,17,21,10.60
2009,09,28,17,22,10.60
2009,09,28,17,23,10.60
2009,09,28,17,24,10.60
2009,09,28,17,25,10.60
2009,09,28,17,26,10.60
2009,09,28,17,27,10.60
2009,09,28,17,28,10.60
2009,09,28,17,29,10.60
2009,09,28,17,30,10.60
2009,09,28,17,31,10.60
2009,09,28,17,32,10.60
2009,09,28,17,33,10.60
2009,09,28,17,34,10.60
2009,09,28,17,35,10.60
2009,09,28,17,36,10.60
2009,09,28,17,37,10.60
2009,09,28,17,38,10.60
2009,09,28,17,39,10.60
2009,09,28,17,40,10.60
2009,09,28,17,41,10.60